"read_dt","SO2 (ppb)","flags","PMT voltage (V)","lamp voltage (V)","lamp intensity (Hz)","internal temp (C)","react chamber temp (C)","sample flow (l/min)","pres (mmHg)","SO2 bkg (ppb)","SO2 coefficient"
2014-05-30 00:00:00,1764E-3,5C000000,-0724,0850,12089,026.3,045.4,0.488,729.3,01.19,0.508
2014-05-30 00:01:00,1896E-3,5C000000,-0724,0850,12143,026.3,045.4,0.487,729.3,01.19,0.508
2014-05-30 00:02:00,1834E-3,5C000000,-0724,0850,12087,026.3,045.4,0.487,729.3,01.19,0.508
2014-05-30 00:03:00,1912E-3,5C000000,-0724,0849,11972,026.3,045.4,0.487,729.3,01.19,0.508
2014-05-30 00:04:00,2014E-3,5C000000,-0724,0850,12025,026.3,045.5,0.487,729.2,01.19,0.508
2014-05-30 00:05:00,1707E-3,5C000000,-0724,0850,11948,026.3,045.5,0.487,729.3,01.19,0.508
2014-05-30 00:06:00,1730E-3,5C000000,-0724,0851,12067,026.3,045.4,0.487,729.2,01.19,0.508
2014-05-30 00:07:00,1808E-3,5C000000,-0724,0851,12135,026.3,045.4,0.487,729.3,01.19,0.508
2014-05-30 00:08:00,1869E-3,5C000000,-0724,0850,11944,026.3,045.4,0.487,729.3,01.19,0.508
2014-05-30 00:09:00,1857E-3,5C000000,-0724,0851,11947,026.3,045.4,0.487,729.3,01.19,0.508
2014-05-30 00:10:00,1856E-3,5C000000,-0724,0851,11973,026.3,045.4,0.487,729.3,01.19,0.508
2014-05-30 00:11:00,1857E-3,5C000000,-0724,0851,11774,026.3,045.5,0.487,729.3,01.19,0.508
2014-05-30 00:12:00,1892E-3,5C000000,-0724,0850,11891,026.3,045.5,0.488,729.3,01.19,0.508
2014-05-30 00:13:00,1792E-3,5C000000,-0724,0851,11978,026.3,045.5,0.488,729.3,01.19,0.508
2014-05-30 00:14:00,1827E-3,5C000000,-0724,0849,11964,026.3,045.5,0.488,729.3,01.19,0.508
2014-05-30 00:15:00,1853E-3,5C000000,-0724,0851,11842,026.3,045.4,0.488,729.3,01.19,0.508
2014-05-30 00:16:00,1820E-3,5C000000,-0724,0851,12009,026.3,045.4,0.488,729.3,01.19,0.508
2014-05-30 00:17:00,1892E-3,5C000000,-0724,0850,11956,026.3,045.5,0.487,729.2,01.19,0.508
2014-05-30 00:18:00,1732E-3,5C000000,-0724,0851,11955,026.3,045.4,0.487,729.3,01.19,0.508
2014-05-30 00:19:00,1879E-3,5C000000,-0724,0850,12100,026.3,045.4,0.487,729.3,01.19,0.508
2014-05-30 00:20:00,1684E-3,5C000000,-0724,0850,12059,026.3,045.4,0.487,729.3,01.19,0.508
2014-05-30 00:21:00,1846E-3,5C000000,-0724,0850,12074,026.3,045.4,0.487,729.3,01.19,0.508
2014-05-30 00:22:00,1721E-3,5C000000,-0724,0851,12106,026.3,045.5,0.487,729.2,01.19,0.508
2014-05-30 00:23:00,1732E-3,5C000000,-0724,0851,11903,026.3,045.5,0.487,729.2,01.19,0.508
2014-05-30 00:24:00,1705E-3,5C000000,-0724,0851,11972,026.3,045.5,0.487,729.3,01.19,0.508
2014-05-30 00:25:00,1885E-3,5C000000,-0724,0849,12084,026.3,045.4,0.487,729.2,01.19,0.508
2014-05-30 00:26:00,1924E-3,5C000000,-0724,0851,11975,026.3,045.5,0.487,729.3,01.19,0.508
2014-05-30 00:27:00,1895E-3,5C000000,-0724,0850,11876,026.3,045.5,0.487,729.3,01.19,0.508
2014-05-30 00:28:00,1853E-3,5C000000,-0724,0850,12014,026.3,045.5,0.488,729.3,01.19,0.508
2014-05-30 00:29:00,2010E-3,5C000000,-0724,0850,12197,026.3,045.4,0.488,729.2,01.19,0.508
2014-05-30 00:30:00,1892E-3,5C000000,-0724,0850,12052,026.3,045.4,0.487,729.2,01.19,0.508
2014-05-30 00:31:00,1760E-3,5C000000,-0724,0851,11998,026.3,045.5,0.487,729.2,01.19,0.508
2014-05-30 00:32:00,1720E-3,5C000000,-0724,0851,12033,026.3,045.5,0.487,729.2,01.19,0.508
2014-05-30 00:33:00,1875E-3,5C000000,-0724,0850,11980,026.3,045.5,0.487,729.2,01.19,0.508
2014-05-30 00:34:00,1870E-3,5C000000,-0724,0851,11970,026.3,045.5,0.487,729.2,01.19,0.508
2014-05-30 00:35:00,1888E-3,5C000000,-0724,0850,11910,026.3,045.5,0.487,729.2,01.19,0.508
2014-05-30 00:36:00,1919E-3,5C000000,-0724,0852,11804,026.3,045.5,0.487,729.2,01.19,0.508
2014-05-30 00:37:00,1826E-3,5C000000,-0724,0851,11970,026.3,045.5,0.487,729.2,01.19,0.508
2014-05-30 00:38:00,1751E-3,5C000000,-0724,0851,12012,026.3,045.4,0.487,729.2,01.19,0.508
2014-05-30 00:39:00,1861E-3,5C000000,-0724,0851,11994,026.3,045.4,0.487,729.2,01.19,0.508
2014-05-30 00:40:00,1757E-3,5C000000,-0724,0851,12221,026.3,045.5,0.487,729.3,01.19,0.508
2014-05-30 00:41:00,1813E-3,5C000000,-0724,0851,11708,026.3,045.5,0.487,729.2,01.19,0.508
2014-05-30 00:42:00,1845E-3,5C000000,-0724,0851,12125,026.3,045.5,0.488,729.3,01.19,0.508
2014-05-30 00:43:00,1744E-3,5C000000,-0724,0851,11823,026.3,045.5,0.488,729.3,01.19,0.508
2014-05-30 00:44:00,1865E-3,5C000000,-0724,0850,12201,026.3,045.5,0.488,729.3,01.19,0.508
2014-05-30 00:45:00,1904E-3,5C000000,-0724,0851,12001,026.3,045.5,0.488,729.3,01.19,0.508
2014-05-30 00:46:00,1850E-3,5C000000,-0724,0851,11965,026.3,045.5,0.488,729.3,01.19,0.508
2014-05-30 00:47:00,1782E-3,5C000000,-0724,0851,12041,026.3,045.4,0.487,729.3,01.19,0.508
2014-05-30 00:48:00,1805E-3,5C000000,-0724,0851,12090,026.3,045.4,0.487,729.3,01.19,0.508
2014-05-30 00:49:00,1704E-3,5C000000,-0724,0851,11996,026.3,045.4,0.487,729.3,01.19,0.508
2014-05-30 00:50:00,1675E-3,5C000000,-0724,0851,11968,026.3,045.5,0.487,729.3,01.19,0.508
2014-05-30 00:51:00,1878E-3,5C000000,-0724,0851,11906,026.3,045.4,0.487,729.3,01.19,0.508
2014-05-30 00:52:00,1792E-3,5C000000,-0724,0850,11981,026.3,045.4,0.487,729.3,01.19,0.508
2014-05-30 00:53:00,1860E-3,5C000000,-0724,0852,12066,026.3,045.5,0.487,729.3,01.19,0.508
2014-05-30 00:54:00,1832E-3,5C000000,-0724,0850,11942,026.3,045.4,0.487,729.3,01.19,0.508
2014-05-30 00:55:00,1984E-3,5C000000,-0724,0850,12031,026.3,045.4,0.487,729.3,01.19,0.508
2014-05-30 00:56:00,1810E-3,5C000000,-0724,0850,11919,026.3,045.5,0.487,729.3,01.19,0.508
2014-05-30 00:57:00,1934E-3,5C000000,-0724,0850,12033,026.3,045.5,0.488,729.3,01.19,0.508
2014-05-30 00:58:00,2005E-3,5C000000,-0724,0850,12092,026.3,045.4,0.488,729.3,01.19,0.508
2014-05-30 00:59:00,1874E-3,5C000000,-0724,0851,11980,026.3,045.5,0.488,729.3,01.19,0.508
2014-05-30 01:00:00,1788E-3,5C000000,-0724,0852,12084,026.3,045.5,0.488,729.3,01.19,0.508
2014-05-30 01:01:00,1809E-3,5C000000,-0724,0851,11952,026.3,045.4,0.488,729.2,01.19,0.508
2014-05-30 01:02:00,1887E-3,5C000000,-0724,0851,12022,026.3,045.4,0.488,729.2,01.19,0.508
2014-05-30 01:03:00,1745E-3,5C000000,-0724,0852,11937,026.3,045.5,0.487,729.2,01.19,0.508
2014-05-30 01:04:00,1793E-3,5C000000,-0724,0851,12114,026.3,045.5,0.487,729.3,01.19,0.508
2014-05-30 01:05:00,1895E-3,5C000000,-0724,0851,12050,026.3,045.5,0.487,729.2,01.19,0.508
2014-05-30 01:06:00,1912E-3,5C000000,-0724,0851,12149,026.3,045.5,0.487,729.3,01.19,0.508
2014-05-30 01:07:00,1873E-3,5C000000,-0724,0851,12097,026.3,045.5,0.487,729.3,01.19,0.508
2014-05-30 01:08:00,1843E-3,5C000000,-0724,0850,12160,026.3,045.4,0.487,729.3,01.19,0.508
2014-05-30 01:09:00,1857E-3,5C000000,-0724,0851,11807,026.3,045.4,0.487,729.3,01.19,0.508
2014-05-30 01:10:00,1840E-3,5C000000,-0724,0850,12103,026.3,045.4,0.487,729.3,01.19,0.508
2014-05-30 01:11:00,1805E-3,5C000000,-0724,0851,12058,026.3,045.5,0.487,729.3,01.19,0.508
2014-05-30 01:12:00,1787E-3,5C000000,-0724,0851,12054,026.3,045.5,0.487,729.3,01.19,0.508
2014-05-30 01:13:00,1831E-3,5C000000,-0724,0850,12007,026.3,045.5,0.488,729.3,01.19,0.508
2014-05-30 01:14:00,1796E-3,5C000000,-0724,0851,11717,026.3,045.4,0.488,729.3,01.19,0.508
2014-05-30 01:15:00,1857E-3,5C000000,-0724,0850,12084,026.3,045.5,0.488,729.3,01.19,0.508
2014-05-30 01:16:00,1714E-3,5C000000,-0724,0850,11944,026.2,045.5,0.488,729.3,01.19,0.508
2014-05-30 01:17:00,1734E-3,5C000000,-0724,0851,12057,026.2,045.5,0.487,729.3,01.19,0.508
2014-05-30 01:18:00,1788E-3,5C000000,-0724,0850,12081,026.3,045.5,0.487,729.3,01.19,0.508
2014-05-30 01:19:00,1811E-3,5C000000,-0724,0850,11897,026.2,045.4,0.487,729.3,01.19,0.508
2014-05-30 01:20:00,1880E-3,5C000000,-0724,0850,12033,026.3,045.4,0.487,729.3,01.19,0.508
2014-05-30 01:21:00,1873E-3,5C000000,-0724,0851,12043,026.3,045.4,0.487,729.3,01.19,0.508
2014-05-30 01:22:00,1855E-3,5C000000,-0724,0851,11979,026.3,045.5,0.487,729.3,01.19,0.508
2014-05-30 01:23:00,1837E-3,5C000000,-0724,0851,11989,026.3,045.5,0.487,729.3,01.19,0.508
2014-05-30 01:24:00,1827E-3,5C000000,-0724,0849,12061,026.3,045.4,0.487,729.3,01.19,0.508
2014-05-30 01:25:00,1917E-3,5C000000,-0724,0850,12075,026.3,045.5,0.487,729.3,01.19,0.508
2014-05-30 01:26:00,1867E-3,5C000000,-0724,0851,12129,026.3,045.5,0.488,729.3,01.19,0.508
2014-05-30 01:27:00,1761E-3,5C000000,-0724,0850,11845,026.3,045.5,0.488,729.4,01.19,0.508
2014-05-30 01:28:00,1917E-3,5C000000,-0724,0851,11991,026.2,045.5,0.488,729.4,01.19,0.508
2014-05-30 01:29:00,1931E-3,5C000000,-0724,0850,12126,026.3,045.4,0.488,729.4,01.19,0.508
2014-05-30 01:30:00,1729E-3,5C000000,-0724,0851,12109,026.3,045.4,0.488,729.4,01.19,0.508
2014-05-30 01:31:00,1882E-3,5C000000,-0724,0851,11845,026.2,045.5,0.488,729.4,01.19,0.508
2014-05-30 01:32:00,1955E-3,5C000000,-0724,0851,12064,026.3,045.4,0.488,729.4,01.19,0.508
2014-05-30 01:33:00,1851E-3,5C000000,-0724,0851,11903,026.3,045.5,0.487,729.4,01.19,0.508
2014-05-30 01:34:00,1957E-3,5C000000,-0724,0850,11973,026.2,045.5,0.487,729.4,01.19,0.508
2014-05-30 01:35:00,1757E-3,5C000000,-0724,0851,11983,026.3,045.5,0.487,729.4,01.19,0.508
2014-05-30 01:36:00,1931E-3,5C000000,-0724,0851,11977,026.2,045.4,0.487,729.4,01.19,0.508
2014-05-30 01:37:00,1725E-3,5C000000,-0724,0851,12069,026.3,045.4,0.487,729.4,01.19,0.508
2014-05-30 01:38:00,1853E-3,5C000000,-0724,0851,11903,026.3,045.4,0.487,729.4,01.19,0.508
2014-05-30 01:39:00,1897E-3,5C000000,-0724,0850,12046,026.2,045.4,0.487,729.4,01.19,0.508
2014-05-30 01:40:00,1902E-3,5C000000,-0724,0851,11977,026.2,045.5,0.487,729.4,01.19,0.508
2014-05-30 01:41:00,1766E-3,5C000000,-0724,0850,11978,026.2,045.5,0.487,729.4,01.19,0.508
2014-05-30 01:42:00,1938E-3,5C000000,-0724,0850,12094,026.2,045.4,0.487,729.4,01.19,0.508
2014-05-30 01:43:00,1665E-3,5C000000,-0724,0852,12023,026.2,045.4,0.488,729.4,01.19,0.508
2014-05-30 01:44:00,1872E-3,5C000000,-0724,0850,11994,026.3,045.5,0.488,729.4,01.19,0.508
2014-05-30 01:45:00,1782E-3,5C000000,-0724,0850,11912,026.2,045.4,0.488,729.4,01.19,0.508
2014-05-30 01:46:00,1909E-3,5C000000,-0724,0851,11953,026.2,045.5,0.488,729.4,01.19,0.508
2014-05-30 01:47:00,1905E-3,5C000000,-0724,0851,11900,026.3,045.5,0.488,729.4,01.19,0.508
2014-05-30 01:48:00,1841E-3,5C000000,-0724,0852,11929,026.2,045.5,0.488,729.4,01.19,0.508
2014-05-30 01:49:00,1887E-3,5C000000,-0724,0851,12052,026.2,045.4,0.488,729.4,01.19,0.508
2014-05-30 01:50:00,1784E-3,5C000000,-0724,0852,12041,026.2,045.4,0.488,729.4,01.19,0.508
2014-05-30 01:51:00,1827E-3,5C000000,-0724,0851,12131,026.2,045.5,0.488,729.4,01.19,0.508
2014-05-30 01:52:00,1798E-3,5C000000,-0724,0851,12013,026.2,045.5,0.487,729.4,01.19,0.508
2014-05-30 01:53:00,1794E-3,5C000000,-0724,0851,11864,026.2,045.5,0.487,729.5,01.19,0.508
2014-05-30 01:54:00,1924E-3,5C000000,-0724,0851,12003,026.2,045.5,0.487,729.5,01.19,0.508
2014-05-30 01:55:00,1816E-3,5C000000,-0724,0851,12175,026.2,045.4,0.487,729.5,01.19,0.508
2014-05-30 01:56:00,1872E-3,5C000000,-0724,0851,12104,026.2,045.4,0.487,729.4,01.19,0.508
2014-05-30 01:57:00,1760E-3,5C000000,-0724,0851,12040,026.2,045.5,0.487,729.5,01.19,0.508
2014-05-30 01:58:00,1792E-3,5C000000,-0724,0850,12053,026.2,045.4,0.487,729.5,01.19,0.508
2014-05-30 01:59:00,1915E-3,5C000000,-0724,0851,12005,026.2,045.4,0.487,729.5,01.19,0.508
2014-05-30 02:00:00,1810E-3,5C000000,-0724,0851,12022,026.2,045.5,0.487,729.5,01.19,0.508
2014-05-30 02:01:00,1898E-3,5C000000,-0724,0851,11932,026.2,045.4,0.487,729.5,01.19,0.508
2014-05-30 02:02:00,1817E-3,5C000000,-0724,0850,11896,026.3,045.4,0.487,729.5,01.19,0.508
2014-05-30 02:03:00,1790E-3,5C000000,-0724,0850,11862,026.2,045.4,0.487,729.5,01.19,0.508
2014-05-30 02:04:00,1743E-3,5C000000,-0724,0851,11917,026.3,045.5,0.488,729.5,01.19,0.508
2014-05-30 02:05:00,1909E-3,5C000000,-0724,0852,12082,026.2,045.4,0.488,729.5,01.19,0.508
2014-05-30 02:06:00,1821E-3,5C000000,-0724,0851,11920,026.2,045.5,0.488,729.5,01.19,0.508
2014-05-30 02:07:00,1818E-3,5C000000,-0724,0851,11992,026.2,045.4,0.488,729.5,01.19,0.508
2014-05-30 02:08:00,1857E-3,5C000000,-0724,0850,11980,026.2,045.4,0.488,729.5,01.19,0.508
2014-05-30 02:09:00,1781E-3,5C000000,-0724,0851,11788,026.2,045.5,0.488,729.5,01.19,0.508
2014-05-30 02:10:00,1769E-3,5C000000,-0724,0851,12029,026.2,045.4,0.488,729.5,01.19,0.508
2014-05-30 02:11:00,1893E-3,5C000000,-0724,0850,11868,026.2,045.4,0.488,729.5,01.19,0.508
2014-05-30 02:12:00,1768E-3,5C000000,-0724,0850,11899,026.2,045.4,0.488,729.5,01.19,0.508
2014-05-30 02:13:00,1816E-3,5C000000,-0724,0851,11809,026.2,045.4,0.488,729.5,01.19,0.508
2014-05-30 02:14:00,1866E-3,5C000000,-0724,0850,11970,026.2,045.4,0.487,729.5,01.19,0.508
2014-05-30 02:15:00,1792E-3,5C000000,-0724,0850,12010,026.2,045.5,0.487,729.5,01.19,0.508
2014-05-30 02:16:00,1924E-3,5C000000,-0724,0851,12085,026.2,045.5,0.487,729.5,01.19,0.508
2014-05-30 02:17:00,1948E-3,5C000000,-0724,0850,11939,026.2,045.4,0.487,729.5,01.19,0.508
2014-05-30 02:18:00,1866E-3,5C000000,-0724,0851,11889,026.2,045.4,0.487,729.5,01.19,0.508
2014-05-30 02:19:00,1968E-3,5C000000,-0724,0851,11883,026.2,045.5,0.487,729.5,01.19,0.508
2014-05-30 02:20:00,1823E-3,5C000000,-0724,0851,11990,026.2,045.5,0.487,729.5,01.19,0.508
2014-05-30 02:21:00,1864E-3,5C000000,-0724,0851,12205,026.2,045.5,0.487,729.5,01.19,0.508
2014-05-30 02:22:00,1918E-3,5C000000,-0724,0851,12110,026.2,045.4,0.487,729.5,01.19,0.508
2014-05-30 02:23:00,1721E-3,5C000000,-0724,0850,11990,026.2,045.4,0.487,729.5,01.19,0.508
2014-05-30 02:24:00,1991E-3,5C000000,-0724,0851,12075,026.2,045.4,0.487,729.5,01.19,0.508
2014-05-30 02:25:00,1681E-3,5C000000,-0724,0849,11999,026.2,045.4,0.488,729.5,01.19,0.508
2014-05-30 02:26:00,1987E-3,5C000000,-0724,0850,11868,026.2,045.5,0.488,729.5,01.19,0.508
2014-05-30 02:27:00,1896E-3,5C000000,-0724,0850,12001,026.2,045.5,0.488,729.5,01.19,0.508
2014-05-30 02:28:00,1903E-3,5C000000,-0724,0850,12079,026.2,045.5,0.488,729.5,01.19,0.508
2014-05-30 02:29:00,1788E-3,5C000000,-0724,0851,11873,026.2,045.4,0.488,729.5,01.19,0.508
2014-05-30 02:30:00,1840E-3,5C000000,-0724,0850,11999,026.2,045.4,0.488,729.5,01.19,0.508
2014-05-30 02:31:00,1939E-3,5C000000,-0724,0850,11869,026.1,045.4,0.488,729.5,01.19,0.508
2014-05-30 02:32:00,1807E-3,5C000000,-0724,0850,12087,026.1,045.4,0.488,729.5,01.19,0.508
2014-05-30 02:33:00,1909E-3,5C000000,-0724,0852,12106,026.2,045.4,0.488,729.5,01.19,0.508
2014-05-30 02:34:00,1873E-3,5C000000,-0724,0851,12035,026.2,045.5,0.488,729.5,01.19,0.508
2014-05-30 02:35:00,1826E-3,5C000000,-0724,0850,12116,026.2,045.5,0.488,729.5,01.19,0.508
2014-05-30 02:36:00,1865E-3,5C000000,-0724,0850,11991,026.2,045.5,0.488,729.5,01.19,0.508
2014-05-30 02:37:00,1845E-3,5C000000,-0724,0850,12056,026.2,045.5,0.488,729.5,01.19,0.508
2014-05-30 02:38:00,1744E-3,5C000000,-0724,0850,12026,026.2,045.5,0.488,729.5,01.19,0.508
2014-05-30 02:39:00,1852E-3,5C000000,-0724,0851,11837,026.2,045.5,0.487,729.6,01.19,0.508
2014-05-30 02:40:00,1627E-3,5C000000,-0724,0851,12014,026.2,045.5,0.487,729.5,01.19,0.508
2014-05-30 02:41:00,1938E-3,5C000000,-0724,0851,12067,026.2,045.5,0.487,729.6,01.19,0.508
2014-05-30 02:42:00,1819E-3,5C000000,-0724,0850,11954,026.2,045.5,0.487,729.6,01.19,0.508
2014-05-30 02:43:00,1924E-3,5C000000,-0724,0850,11940,026.2,045.4,0.487,729.5,01.19,0.508
2014-05-30 02:44:00,1749E-3,5C000000,-0724,0850,11926,026.2,045.5,0.487,729.6,01.19,0.508
2014-05-30 02:45:00,1886E-3,5C000000,-0724,0851,12162,026.2,045.5,0.487,729.5,01.19,0.508
2014-05-30 02:46:00,1735E-3,5C000000,-0724,0850,11987,026.2,045.5,0.487,729.6,01.19,0.508
2014-05-30 02:47:00,1812E-3,5C000000,-0724,0850,12063,026.2,045.5,0.487,729.6,01.19,0.508
2014-05-30 02:48:00,1778E-3,5C000000,-0724,0851,11998,026.2,045.5,0.487,729.5,01.19,0.508
2014-05-30 02:49:00,1882E-3,5C000000,-0724,0850,11949,026.2,045.5,0.487,729.6,01.19,0.508
2014-05-30 02:50:00,1759E-3,5C000000,-0724,0850,11967,026.2,045.5,0.487,729.5,01.19,0.508
2014-05-30 02:51:00,1795E-3,5C000000,-0724,0850,11851,026.2,045.4,0.487,729.6,01.19,0.508
2014-05-30 02:52:00,1875E-3,5C000000,-0724,0851,11977,026.2,045.4,0.487,729.6,01.19,0.508
2014-05-30 02:53:00,1750E-3,5C000000,-0724,0850,12014,026.2,045.4,0.487,729.6,01.19,0.508
2014-05-30 02:54:00,1785E-3,5C000000,-0724,0850,12162,026.2,045.4,0.488,729.6,01.19,0.508
2014-05-30 02:55:00,1690E-3,5C000000,-0724,0851,12139,026.2,045.4,0.488,729.6,01.19,0.508
2014-05-30 02:56:00,1899E-3,5C000000,-0724,0851,12153,026.1,045.4,0.488,729.6,01.19,0.508
2014-05-30 02:57:00,1874E-3,5C000000,-0724,0850,11945,026.2,045.4,0.488,729.6,01.19,0.508
2014-05-30 02:58:00,1782E-3,5C000000,-0724,0850,12097,026.2,045.4,0.488,729.6,01.19,0.508
2014-05-30 02:59:00,1763E-3,5C000000,-0724,0850,12137,026.2,045.4,0.488,729.6,01.19,0.508
2014-05-30 03:00:00,1763E-3,5C000000,-0724,0850,11930,026.2,045.4,0.488,729.6,01.19,0.508
2014-05-30 03:01:00,1859E-3,5C000000,-0724,0850,11869,026.2,045.4,0.488,729.6,01.19,0.508
2014-05-30 03:02:00,1883E-3,5C000000,-0724,0849,12033,026.2,045.4,0.488,729.6,01.19,0.508
2014-05-30 03:03:00,1807E-3,5C000000,-0724,0852,11695,026.2,045.4,0.488,729.6,01.19,0.508
2014-05-30 03:04:00,1712E-3,5C000000,-0724,0850,11961,026.2,045.4,0.488,729.6,01.19,0.508
2014-05-30 03:05:00,1932E-3,5C000000,-0724,0850,12131,026.1,045.5,0.488,729.6,01.19,0.508
2014-05-30 03:06:00,1856E-3,5C000000,-0724,0850,11948,026.2,045.4,0.488,729.7,01.19,0.508
2014-05-30 03:07:00,1789E-3,5C000000,-0724,0850,12002,026.1,045.5,0.488,729.6,01.19,0.508
2014-05-30 03:08:00,1775E-3,5C000000,-0724,0851,11972,026.1,045.5,0.488,729.7,01.19,0.508
2014-05-30 03:09:00,1811E-3,5C000000,-0724,0850,11921,026.1,045.5,0.488,729.7,01.19,0.508
2014-05-30 03:10:00,1798E-3,5C000000,-0724,0850,11909,026.2,045.4,0.488,729.7,01.19,0.508
2014-05-30 03:11:00,1870E-3,5C000000,-0724,0850,12133,026.2,045.4,0.488,729.7,01.19,0.508
2014-05-30 03:12:00,1714E-3,5C000000,-0724,0850,11970,026.2,045.5,0.488,729.7,01.19,0.508
2014-05-30 03:13:00,1662E-3,5C000000,-0724,0851,11783,026.2,045.4,0.487,729.7,01.19,0.508
2014-05-30 03:14:00,1913E-3,5C000000,-0724,0851,12190,026.2,045.4,0.487,729.7,01.19,0.508
2014-05-30 03:15:00,1914E-3,5C000000,-0724,0850,12127,026.1,045.4,0.487,729.7,01.19,0.508
2014-05-30 03:16:00,1794E-3,5C000000,-0724,0849,11949,026.2,045.5,0.487,729.7,01.19,0.508
2014-05-30 03:17:00,1750E-3,5C000000,-0724,0850,12034,026.2,045.5,0.487,729.7,01.19,0.508
2014-05-30 03:18:00,1855E-3,5C000000,-0724,0849,12093,026.1,045.5,0.487,729.7,01.19,0.508
2014-05-30 03:19:00,1802E-3,5C000000,-0724,0850,12028,026.1,045.5,0.487,729.7,01.19,0.508
2014-05-30 03:20:00,2025E-3,5C000000,-0724,0850,11840,026.1,045.4,0.487,729.7,01.19,0.508
2014-05-30 03:21:00,1862E-3,5C000000,-0724,0851,12143,026.2,045.4,0.487,729.7,01.19,0.508
2014-05-30 03:22:00,1726E-3,5C000000,-0724,0850,11953,026.1,045.5,0.487,729.7,01.19,0.508
2014-05-30 03:23:00,1852E-3,5C000000,-0724,0850,12052,026.1,045.5,0.487,729.7,01.19,0.508
2014-05-30 03:24:00,1580E-3,5C000000,-0724,0849,12037,026.1,045.4,0.487,729.7,01.19,0.508
2014-05-30 03:25:00,1764E-3,5C000000,-0724,0849,12042,026.1,045.4,0.487,729.7,01.19,0.508
2014-05-30 03:26:00,1847E-3,5C000000,-0724,0850,11901,026.1,045.4,0.487,729.7,01.19,0.508
2014-05-30 03:27:00,1927E-3,5C000000,-0724,0850,11962,026.1,045.4,0.487,729.7,01.19,0.508
2014-05-30 03:28:00,1823E-3,5C000000,-0724,0849,12076,026.1,045.4,0.487,729.7,01.19,0.508
2014-05-30 03:29:00,2008E-3,5C000000,-0724,0850,12077,026.1,045.5,0.487,729.7,01.19,0.508
2014-05-30 03:30:00,1764E-3,5C000000,-0724,0850,11897,026.1,045.4,0.487,729.7,01.19,0.508
2014-05-30 03:31:00,1854E-3,5C000000,-0724,0849,12075,026.1,045.5,0.487,729.7,01.19,0.508
2014-05-30 03:32:00,1795E-3,5C000000,-0724,0850,11956,026.1,045.5,0.487,729.8,01.19,0.508
2014-05-30 03:33:00,1842E-3,5C000000,-0724,0850,11921,026.1,045.4,0.488,729.8,01.19,0.508
2014-05-30 03:34:00,1837E-3,5C000000,-0724,0849,12085,026.1,045.4,0.488,729.8,01.19,0.508
2014-05-30 03:35:00,1875E-3,5C000000,-0724,0849,11981,026.1,045.4,0.487,729.8,01.19,0.508
2014-05-30 03:36:00,1837E-3,5C000000,-0724,0850,12207,026.1,045.5,0.487,729.8,01.19,0.508
2014-05-30 03:37:00,1856E-3,5C000000,-0724,0849,11934,026.1,045.5,0.487,729.8,01.19,0.508
2014-05-30 03:38:00,1880E-3,5C000000,-0724,0851,12080,026.1,045.5,0.488,729.8,01.19,0.508
2014-05-30 03:39:00,1880E-3,5C000000,-0724,0849,11909,026.1,045.4,0.488,729.8,01.19,0.508
2014-05-30 03:40:00,1840E-3,5C000000,-0724,0850,12126,026.1,045.4,0.487,729.8,01.19,0.508
2014-05-30 03:41:00,1706E-3,5C000000,-0724,0850,12050,026.1,045.4,0.487,729.8,01.19,0.508
2014-05-30 03:42:00,1903E-3,5C000000,-0724,0850,12134,026.1,045.5,0.488,729.8,01.19,0.508
2014-05-30 03:43:00,1799E-3,5C000000,-0724,0850,12043,026.1,045.4,0.488,729.8,01.19,0.508
2014-05-30 03:44:00,1824E-3,5C000000,-0724,0850,11975,026.1,045.5,0.488,729.8,01.19,0.508
2014-05-30 03:45:00,1931E-3,5C000000,-0724,0849,11960,026.1,045.5,0.488,729.8,01.19,0.508
2014-05-30 03:46:00,1836E-3,5C000000,-0724,0849,12194,026.1,045.5,0.488,729.8,01.19,0.508
2014-05-30 03:47:00,1799E-3,5C000000,-0724,0850,11957,026.1,045.4,0.488,729.8,01.19,0.508
2014-05-30 03:48:00,1827E-3,5C000000,-0724,0850,11747,026.1,045.5,0.488,729.8,01.19,0.508
2014-05-30 03:49:00,1919E-3,5C000000,-0724,0849,12148,026.1,045.4,0.488,729.8,01.19,0.508
2014-05-30 03:50:00,1775E-3,5C000000,-0724,0849,12036,026.1,045.5,0.488,729.8,01.19,0.508
2014-05-30 03:51:00,1954E-3,5C000000,-0724,0850,11907,026.1,045.5,0.488,729.8,01.19,0.508
2014-05-30 03:52:00,1765E-3,5C000000,-0724,0849,12181,026.1,045.4,0.488,729.8,01.19,0.508
2014-05-30 03:53:00,1846E-3,5C000000,-0724,0851,12081,026.1,045.4,0.488,729.8,01.19,0.508
2014-05-30 03:54:00,1895E-3,5C000000,-0724,0849,12049,026.1,045.4,0.488,729.8,01.19,0.508
2014-05-30 03:55:00,1919E-3,5C000000,-0724,0850,11993,026.1,045.4,0.488,729.8,01.19,0.508
2014-05-30 03:56:00,1771E-3,5C000000,-0724,0850,11773,026.1,045.4,0.488,729.8,01.19,0.508
2014-05-30 03:57:00,1880E-3,5C000000,-0724,0850,11969,026.1,045.4,0.488,729.8,01.19,0.508
2014-05-30 03:58:00,1825E-3,5C000000,-0724,0850,12145,026.1,045.5,0.488,729.8,01.19,0.508
2014-05-30 03:59:00,1911E-3,5C000000,-0724,0850,11823,026.1,045.5,0.488,729.8,01.19,0.508
2014-05-30 04:00:00,1845E-3,5C000000,-0724,0850,11942,026.1,045.5,0.488,729.8,01.19,0.508
2014-05-30 04:01:00,1847E-3,5C000000,-0724,0850,12006,026.1,045.4,0.488,729.8,01.19,0.508
2014-05-30 04:02:00,1987E-3,5C000000,-0724,0850,12006,026.1,045.5,0.488,729.8,01.19,0.508
2014-05-30 04:03:00,1888E-3,5C000000,-0724,0850,12025,026.1,045.5,0.488,729.8,01.19,0.508
2014-05-30 04:04:00,1733E-3,5C000000,-0724,0850,12028,026.1,045.5,0.488,729.8,01.19,0.508
2014-05-30 04:05:00,1815E-3,5C000000,-0724,0850,11969,026.1,045.5,0.488,729.8,01.19,0.508
2014-05-30 04:06:00,1811E-3,5C000000,-0724,0849,12062,026.1,045.5,0.488,729.8,01.19,0.508
2014-05-30 04:07:00,1866E-3,5C000000,-0724,0850,11968,026.1,045.5,0.488,729.8,01.19,0.508
2014-05-30 04:08:00,1814E-3,5C000000,-0724,0849,12068,026.1,045.4,0.488,729.8,01.19,0.508
2014-05-30 04:09:00,1774E-3,5C000000,-0724,0850,12111,026.1,045.4,0.488,729.8,01.19,0.508
2014-05-30 04:10:00,1775E-3,5C000000,-0724,0850,12008,026.1,045.4,0.488,729.8,01.19,0.508
2014-05-30 04:11:00,1845E-3,5C000000,-0724,0850,11997,026.1,045.4,0.488,729.9,01.19,0.508
2014-05-30 04:12:00,1828E-3,5C000000,-0724,0850,12071,026.1,045.4,0.488,729.9,01.19,0.508
2014-05-30 04:13:00,1742E-3,5C000000,-0724,0851,12071,026.1,045.5,0.488,729.9,01.19,0.508
2014-05-30 04:14:00,1892E-3,5C000000,-0724,0850,12181,026.1,045.4,0.488,729.9,01.19,0.508
2014-05-30 04:15:00,1881E-3,5C000000,-0724,0850,12052,026.1,045.5,0.488,729.9,01.19,0.508
2014-05-30 04:16:00,1770E-3,5C000000,-0724,0850,12110,026.1,045.5,0.488,729.9,01.19,0.508
2014-05-30 04:17:00,1777E-3,5C000000,-0724,0849,12048,026.1,045.5,0.488,729.9,01.19,0.508
2014-05-30 04:18:00,1849E-3,5C000000,-0724,0849,11994,026.1,045.5,0.488,729.9,01.19,0.508
2014-05-30 04:19:00,1700E-3,5C000000,-0724,0850,12018,026.1,045.4,0.488,729.9,01.19,0.508
2014-05-30 04:20:00,1758E-3,5C000000,-0724,0851,11986,026.1,045.4,0.488,729.9,01.19,0.508